Weather in Panino

Russia / Nizhny Novgorod Oblast'     55°45′15″N   42°55′34″E
temp.,
°C
wind,
m/s
gust,
m/s
humid.,
%
clouds,
%
prec.,
mm/h
press.,
hPa
HPBL,
m
16 may, sun
sun1600:00+15ssw38963 0.0 1013173
03:00+14ssw23945 0.0 101356
06:00+16ssw25911 0.0 1013139
09:00+20sw36633 0.0 1014676
12:00+23wsw474826 0.0 10141910
15:00+24wsw47459 0.0 10142213
18:00+22wsw256598 0.0 1014176
21:00+18wsw22725 0.0 101521
17 may, mon
mon1700:00+14ssw11875 0.0 101611
03:00+13sw008941 0.0 101610
06:00+16e12815 0.0 101760
09:00+22e23615 0.0 1017546
12:00+25ese345165 0.0 10171214
15:00+27se345091 0.0 10161319
18:00+24se3665100 0.0 1015129
21:00+18sse3575100 0.0 101672
18 may, tue
tue1800:00+16se3574100 0.0 101662
03:00+15se3974100 0.0 1016143
06:00+17se3974100 0.0 1016176
09:00+23se4853100 0.0 1015417
12:00+26se5942100 0.0 10151269
15:00+27se5945100 0.0 10141382
18:00+24se41058100 0.0 1014369
21:00+19se31377100 0.0 1014276
19 may, wed
wed1900:00+17ese313785 0.0 1014227
03:00+17ese415665 0.0 1014324
06:00+17se415591 0.0 1013342
09:00+24se512515 0.0 1013604
12:00+28ese612402 0.0 10122480
15:00+28ese711460 0.0 10101743
18:00+25ese713585 0.0 10091042
21:00+16se368791 2.5 1010126
20 may, thu
thu2000:00+15se4139053 0.3 1010312
03:00+14se411956 0.4 1009344
06:00+15sse4109447 0.0 1009543
09:00+18sse586990 0.3 10091225
12:00+19s7116151 0.8 10091781
15:00+19s711545 1.4 10091770
18:00+16s6107474 0.2 10091147
21:00+12ssw5108697 0.3 1010702